La Baie, Quebec

12:42 AM ADT on May 26, 2017 (GMT -0300)
La Baie

Weather History for CWUX - October, 2012

Change the Weather History Date:

Friday, October 26, 2012

  Actual Average (CYBG) Record (CYBG)
Temperature  
Mean Temperature 48 °F -  
Max Temperature 57 °F 41 °F 59 °F (2008)
Min Temperature 40 °F 29 °F 24 °F (1997)
Degree Days  
Heating Degree Days 16    
Moisture  
Dew Point 36 °F    
Average Humidity 65    
Maximum Humidity 87    
Minimum Humidity 47    
Precipitation  
Precipitation 0.00 in - - ()
Sea Level Pressure  
Sea Level Pressure 30.09 in    
Wind  
Wind Speed 4 mph ()    
Max Wind Speed 7 mph    
Max Gust Speed -    
Averages and records for this station are not official NWS values.
T = Trace of Precipitation, MM = Missing Value Source: Averaged Metar Reports

Daily Weather History Graph

Daily Weather History Graph

Search for Another Location

Airport or City:

Trip Planner

Search our weather history database for the weather conditions in past years. The results will help you decide how hot, cold, wet, or windy it might be!

Date:

Astronomy

Oct. 26, 2012 Rise Set
Actual Time 8:20 AM ADT 6:33 PM ADT
Civil Twilight 7:48 AM ADT 7:05 PM ADT
Nautical Twilight 7:11 AM ADT 7:42 PM ADT
Astronomical Twilight 6:35 AM ADT 8:18 PM ADT
Moon 4:57 PM ADT 5:01 AM ADT
Length of Visible Light 11h 17m
Length of Day
10h 12m
Waxing Gibbous, 90% of the Moon is Illuminated
Oct 26
Waxing Gibbous
Oct 29
Full
Nov 6
Last Quarter
Nov 13
New
Nov 20
First Quarter

Hourly Weather History & Observations

Time (ADT) Temp. Windchill Dew Point Humidity Pressure Visibility Wind Dir Wind Speed Gust Speed Precip Events Conditions
12:00 AM 43.3 °F 39.2 °F 31.3 °F 62% 30.14 in - NE 6.9 mph - N/A   Unknown
1:00 AM 43.5 °F 40.1 °F 30.7 °F 61% 30.12 in - ENE 5.8 mph - N/A   Unknown
2:00 AM 42.8 °F 38.6 °F 31.3 °F 64% 30.13 in - ENE 6.9 mph - N/A   Unknown
3:00 AM 43 °F - 32 °F 54% 30.13 in - ENE 4.6 mph - -  
3:00 AM 43.0 °F 40.3 °F 32.0 °F 65% 30.13 in - ENE 4.6 mph - N/A   Unknown
4:00 AM 42.6 °F 39.9 °F 32.0 °F 66% 30.13 in - ENE 4.6 mph - N/A   Unknown
5:00 AM 42.1 °F 39.2 °F 31.8 °F 67% 30.13 in - ENE 4.6 mph - N/A   Unknown
6:00 AM 42.1 °F 39.2 °F 31.6 °F 67% 30.12 in - ENE 4.6 mph - N/A   Unknown
7:00 AM 40.6 °F 37.5 °F 31.3 °F 69% 30.12 in - ENE 4.6 mph - N/A   Unknown
8:00 AM 40.6 °F 36.7 °F 31.8 °F 71% 30.12 in - ENE 5.8 mph - N/A   Unknown
9:00 AM 42.1 °F 40.2 °F 31.5 °F 66% 30.12 in - East 3.5 mph - N/A   Unknown
10:00 AM 45.5 °F 43.2 °F 34.5 °F 65% 30.12 in - ENE 4.6 mph - N/A   Unknown
11:00 AM 48.9 °F - 35.6 °F 60% 30.10 in - ENE 4.6 mph - N/A   Unknown
12:00 PM 49.5 °F - 37.0 °F 62% 30.09 in - NE 6.9 mph - N/A   Unknown
1:00 PM 51.8 °F - 37.6 °F 58% 30.06 in - NE 6.9 mph - N/A   Unknown
2:00 PM 54.5 °F - 38.5 °F 55% 30.04 in - NE 3.5 mph - N/A   Unknown
3:00 PM 53 °F - 39 °F 47% 30.04 in - NE 6.9 mph - -  
3:00 PM 53.2 °F - 38.7 °F 58% 30.04 in - NE 6.9 mph - N/A   Unknown
4:00 PM 55.0 °F - 39.7 °F 56% 30.03 in - NNE 3.5 mph - N/A   Unknown
5:00 PM 56.1 °F - 40.3 °F 55% 30.03 in - NNW 2.3 mph - N/A   Unknown
6:00 PM 52.0 °F - 40.8 °F 66% 30.03 in - NE 2.3 mph - N/A   Unknown
7:00 PM 48.7 °F - 39.9 °F 72% 30.05 in - NE 2.3 mph - N/A   Unknown
8:00 PM 43.5 °F - 39.2 °F 85% 30.06 in - SE 1.2 mph - N/A   Unknown
9:00 PM 44 °F - 40 °F 82% 30.08 in - Calm Calm - -  
9:00 PM 44.1 °F - 40.3 °F 87% 30.08 in - Calm Calm - N/A   Unknown